Le nostre stazioni meteo in Italia

Pubblicità
Il mio iltempo24.it
Loreto, Italia (16192): Temperatura & dewpoint: 13.03.2019 19:00:00 - 19.03.2019 19:00:00 (CET)Loreto, Italia (16192): velocità del vento: 13.03.2019 19:00:00 - 19.03.2019 19:00:00 (CET)Loreto, Italia (16192): direzione del vento: 13.03.2019 19:00:00 - 19.03.2019 19:00:00 (CET)Loreto, Italia (16192): reduced air pressure: 13.03.2019 19:00:00 - 19.03.2019 19:00:00 (CET)
Data & Tempo tt [°C] td [°C] ff [km/h] ff [kn] dd ppp [hPa]
19.03.2019 19:00:00 - - - - - -
19.03.2019 18:00:00 6,7 5,5 16 9 O 1021,5
19.03.2019 17:00:00 7,1 6,3 18 10 OSO 1020,9
19.03.2019 16:00:00 7,8 5,9 22 12 OSO 1020,2
19.03.2019 15:00:00 7,8 7,8 15 8 OSO 1020,2
19.03.2019 14:00:00 6,9 6,9 26 14 O 1020,0
19.03.2019 13:00:00 7,1 7,1 21 11 O 1019,8
19.03.2019 12:00:00 7,0 7,0 24 13 O 1019,7
19.03.2019 11:00:00 6,5 6,5 21 11 ONO 1019,3
19.03.2019 10:00:00 6,1 - 15 8 O 1019,0
19.03.2019 09:00:00 6,1 6,1 22 12 OSO 1018,5
19.03.2019 08:00:00 6,7 6,7 16 9 O 1017,8
19.03.2019 07:00:00 6,8 6,8 15 8 O 1017,4
19.03.2019 06:00:00 6,9 6,9 11 6 OSO 1016,7
19.03.2019 05:00:00 7,1 7,1 15 8 O 1016,4
19.03.2019 04:00:00 6,6 6,6 11 6 O 1016,2
19.03.2019 03:00:00 6,6 6,6 18 10 O 1016,1
19.03.2019 02:00:00 6,7 6,7 16 9 O 1016,3
19.03.2019 01:00:00 7,0 7,0 21 11 O 1016,4
19.03.2019 00:00:00 7,2 7,2 21 11 O 1016,4
18.03.2019 23:00:00 7,8 7,8 18 10 O 1016,4
18.03.2019 22:00:00 7,5 7,5 26 14 O 1016,2
18.03.2019 21:00:00 7,4 7,4 22 12 O 1016,1
18.03.2019 20:00:00 7,7 7,7 28 15 O 1015,3
18.03.2019 19:00:00 8,0 8,0 28 15 O 1015,1
18.03.2019 18:00:00 8,4 7,9 28 15 O 1014,7
18.03.2019 17:00:00 8,8 8,2 18 10 O 1014,3
18.03.2019 16:00:00 9,7 7,4 28 15 OSO 1013,2
18.03.2019 15:00:00 11,0 7,8 28 15 OSO 1012,8
18.03.2019 14:00:00 12,4 8,0 26 14 OSO 1012,7
18.03.2019 13:00:00 14,6 10,6 15 8 O 1012,5
18.03.2019 12:00:00 14,5 10,1 16 9 ONO 1012,6
18.03.2019 11:00:00 14,9 9,9 13 7 ONO 1012,4
18.03.2019 10:00:00 15,4 10,7 9 5 OSO 1012,2
18.03.2019 09:00:00 14,0 10,4 11 6 O 1011,8
18.03.2019 08:00:00 12,3 9,3 4 2 O 1011,5
18.03.2019 07:00:00 12,0 6,8 11 6 O 1011,1
18.03.2019 06:00:00 11,9 6,8 5 3 O 1011,0
18.03.2019 05:00:00 12,1 8,0 4 2 O 1010,9
18.03.2019 04:00:00 11,6 8,2 8 4 O 1010,9
18.03.2019 03:00:00 11,0 8,0 15 8 O 1011,3
18.03.2019 02:00:00 12,5 7,9 5 3 SSO 1011,4
18.03.2019 01:00:00 12,6 8,2 5 3 SSO 1011,5
18.03.2019 00:00:00 13,6 7,7 5 3 SSO 1011,7
17.03.2019 23:00:00 12,6 8,8 15 8 SO 1011,9
17.03.2019 22:00:00 11,8 10,0 9 5 SSO 1012,3
17.03.2019 21:00:00 11,8 10,0 13 7 S 1012,5
17.03.2019 20:00:00 11,8 10,2 15 8 SSO 1012,7
17.03.2019 19:00:00 11,7 11,4 13 7 SSO 1013,0
17.03.2019 18:00:00 12,2 12,0 15 8 SSO 1012,5
17.03.2019 17:00:00 12,2 12,2 16 9 SO 1012,6
17.03.2019 16:00:00 13,1 11,6 16 9 OSO 1012,9
17.03.2019 15:00:00 14,3 10,7 15 8 OSO 1013,6
17.03.2019 14:00:00 14,8 10,0 13 7 O 1013,8
17.03.2019 13:00:00 14,7 10,3 13 7 O 1015,0
17.03.2019 12:00:00 15,2 9,9 11 6 O 1015,9
17.03.2019 11:00:00 17,3 10,4 4 2 OSO 1016,3
17.03.2019 10:00:00 14,6 8,7 5 3 SSO 1016,7
17.03.2019 09:00:00 12,6 8,8 13 7 SSO 1016,9
17.03.2019 08:00:00 11,5 7,6 8 4 SSO 1016,8
17.03.2019 07:00:00 10,9 6,6 9 5 SSO 1016,1
17.03.2019 06:00:00 10,9 5,6 11 6 SSO 1016,0
17.03.2019 05:00:00 12,0 5,8 8 4 OSO 1016,0
17.03.2019 04:00:00 12,9 6,9 5 3 O 1016,0
17.03.2019 03:00:00 12,1 6,1 13 7 O 1015,9
17.03.2019 02:00:00 13,2 6,2 18 10 O 1016,1
17.03.2019 01:00:00 13,7 6,5 39 21 OSO 1016,0
17.03.2019 00:00:00 14,0 6,3 35 19 OSO 1016,5
16.03.2019 23:00:00 14,3 6,3 35 19 OSO 1016,3
16.03.2019 22:00:00 14,4 6,7 31 17 OSO 1016,3
16.03.2019 21:00:00 14,6 6,9 39 21 OSO 1015,9
16.03.2019 20:00:00 14,9 7,1 39 21 OSO 1015,4
16.03.2019 19:00:00 15,4 7,6 34 18 OSO 1015,2
16.03.2019 18:00:00 15,8 10,9 8 4 SO 1014,8
16.03.2019 17:00:00 15,2 10,8 4 2 SO 1014,6
16.03.2019 16:00:00 14,8 7,3 15 8 SO 1014,7
16.03.2019 15:00:00 15,9 7,1 11 6 SO 1014,7
16.03.2019 14:00:00 16,6 6,1 13 7 OSO 1014,6
16.03.2019 13:00:00 17,5 7,2 9 5 OSO 1014,9
16.03.2019 12:00:00 17,1 7,4 9 5 O 1015,1
16.03.2019 11:00:00 16,3 6,6 9 5 ONO 1015,4
16.03.2019 10:00:00 16,9 6,3 9 5 ONO 1015,1
16.03.2019 09:00:00 16,6 4,5 8 4 O 1014,5
16.03.2019 08:00:00 - - - - - -
16.03.2019 07:00:00 14,8 2,6 24 13 O 1013,1
16.03.2019 06:00:00 15,0 2,4 24 13 O 1012,6
16.03.2019 05:00:00 15,3 2,4 26 14 O 1012,2
16.03.2019 04:00:00 15,6 3,0 24 13 O 1012,0
16.03.2019 03:00:00 15,4 3,7 28 15 O 1012,0
16.03.2019 02:00:00 15,2 3,9 26 14 OSO 1012,5
16.03.2019 01:00:00 15,2 4,5 26 14 O 1012,9
16.03.2019 00:00:00 15,0 5,1 26 14 O 1012,9
15.03.2019 23:00:00 15,2 5,3 22 12 OSO 1012,9
15.03.2019 22:00:00 15,4 5,8 21 11 OSO 1012,5
15.03.2019 21:00:00 15,8 5,3 22 12 OSO 1012,0
15.03.2019 20:00:00 16,0 5,5 24 13 OSO 1011,8
15.03.2019 19:00:00 16,6 5,5 24 13 OSO 1011,5
15.03.2019 18:00:00 15,2 7,4 11 6 SSO 1011,3
15.03.2019 17:00:00 13,9 7,8 13 7 SSO 1011,2
15.03.2019 16:00:00 14,4 8,1 9 5 SSO 1011,3
15.03.2019 15:00:00 14,3 7,7 9 5 O 1011,3
15.03.2019 14:00:00 14,7 7,2 11 6 O 1011,4
15.03.2019 13:00:00 17,1 4,0 18 10 O 1011,6
15.03.2019 12:00:00 16,5 4,4 24 13 O 1011,7
15.03.2019 11:00:00 15,8 4,4 18 10 O 1011,5
15.03.2019 10:00:00 14,5 6,0 21 11 O 1011,2
15.03.2019 09:00:00 12,5 5,3 21 11 O 1010,9
15.03.2019 08:00:00 10,6 3,8 26 14 OSO 1010,6
15.03.2019 07:00:00 10,0 3,2 26 14 O 1010,1
15.03.2019 06:00:00 10,0 3,0 18 10 O 1009,6
15.03.2019 05:00:00 9,9 3,1 24 13 O 1009,3
15.03.2019 04:00:00 10,0 2,7 22 12 OSO 1008,5
15.03.2019 03:00:00 10,1 2,4 26 14 O 1008,6
15.03.2019 02:00:00 10,4 1,4 26 14 O 1008,6
15.03.2019 01:00:00 10,8 -0,2 26 14 O 1008,5
15.03.2019 00:00:00 11,1 -1,1 29 16 O 1009,0
14.03.2019 23:00:00 11,1 0,4 24 13 O 1009,3
14.03.2019 22:00:00 10,7 2,4 16 9 O 1009,4
14.03.2019 21:00:00 9,9 3,6 9 5 SSO 1009,9
14.03.2019 20:00:00 10,2 2,5 13 7 SSO 1010,2
14.03.2019 19:00:00 9,5 4,0 15 8 O 1010,6
14.03.2019 18:00:00 - - - - - -
14.03.2019 17:00:00 - - - - - -
14.03.2019 16:00:00 - - - - - -
14.03.2019 15:00:00 - - - - - -
14.03.2019 14:00:00 - - - - - -
14.03.2019 13:00:00 - - - - - -
14.03.2019 12:00:00 - - - - - -
14.03.2019 11:00:00 - - - - - -
14.03.2019 10:00:00 - - - - - -
14.03.2019 09:00:00 - - - - - -
14.03.2019 08:00:00 - - - - - -
14.03.2019 07:00:00 - - - - - -
14.03.2019 06:00:00 - - - - - -
14.03.2019 05:00:00 - - - - - -
14.03.2019 04:00:00 - - - - - -
14.03.2019 03:00:00 - - - - - -
14.03.2019 02:00:00 - - - - - -
14.03.2019 01:00:00 - - - - - -
14.03.2019 00:00:00 - - - - - -
13.03.2019 23:00:00 - - - - - -
13.03.2019 22:00:00 - - - - - -
13.03.2019 21:00:00 - - - - - -
13.03.2019 20:00:00 - - - - - -
13.03.2019 19:00:00 - - - - - -

tt = Temperatura
td = dewpoint
ff = velocità del vento
dd = direzione del vento
ppp = reduced air pressure

Stazioni seguenti

WeatherPro
AMSI
MeteoEarth